Thomson, GA

2:53 AM EDT on October 17, 2017 (GMT -0400)
Thomson-McDuffie County

Weather History for KHQU - January, 2014

Change the Weather History Date:

Wednesday, January 8, 2014

  Actual Average (KDNL) Record (KDNL)
Temperature  
Mean Temperature 28 °F -  
Max Temperature 44 °F 55 °F 72 °F (2008)
Min Temperature 12 °F 37 °F 17 °F (2015)
Degree Days  
Heating Degree Days 37    
Moisture  
Dew Point 15 °F    
Average Humidity 70    
Maximum Humidity 100    
Minimum Humidity 27    
Precipitation  
Precipitation 0.00 in - - ()
Sea Level Pressure  
Sea Level Pressure 30.55 in    
Wind  
Wind Speed 0 mph (ESE)    
Max Wind Speed 5 mph    
Max Gust Speed -    
Visibility 10 miles    
Events      
Averages and records for this station are not official NWS values.
T = Trace of Precipitation, MM = Missing Value Source: NWS Daily Summary

Daily Weather History Graph

Daily Weather History Graph

Search for Another Location

Airport or City:

Trip Planner

Search our weather history database for the weather conditions in past years. The results will help you decide how hot, cold, wet, or windy it might be!

Date:

Astronomy

Jan. 08, 2014 Rise Set
Actual Time 7:35 AM EST 5:38 PM EST
Civil Twilight 7:07 AM EST 6:06 PM EST
Nautical Twilight 6:37 AM EST 6:36 PM EST
Astronomical Twilight 6:06 AM EST 7:06 PM EST
Moon 12:21 PM EST (1/8) 12:49 AM EST (1/8)
Length of Visible Light 10h 58m
Length of Day
10h 03m
First Quarter, 56% of the Moon is Illuminated
Jan 8
First Quarter
Jan 15
Full
Jan 24
Last Quarter
Jan 30
New
Feb 6
First Quarter

Hourly Weather History & Observations

Time (EST) Temp. Windchill Dew Point Humidity Pressure Visibility Wind Dir Wind Speed Gust Speed Precip Events Conditions
12:15 AM 16.7 °F - 14.7 °F 92% 30.54 in 10.0 mi Calm Calm - N/A   Clear
12:35 AM 15.8 °F - 14.2 °F 93% 30.54 in 10.0 mi Calm Calm - N/A   Clear
12:55 AM 15.1 °F - 13.5 °F 93% 30.54 in 10.0 mi Calm Calm - N/A   Clear
1:15 AM 15.8 °F - 14.2 °F 93% 30.54 in 10.0 mi Calm Calm - N/A   Clear
1:35 AM 15.4 °F - 13.5 °F 92% 30.54 in 10.0 mi Calm Calm - N/A   Clear
1:55 AM 14.9 °F - 13.5 °F 94% 30.54 in 10.0 mi Calm Calm - N/A   Clear
2:15 AM 14.5 °F - 13.1 °F 94% 30.54 in 10.0 mi Calm Calm - N/A   Clear
2:35 AM 14.9 °F - 13.5 °F 94% 30.54 in 10.0 mi Calm Calm - N/A   Clear
2:55 AM 14.5 °F - 14.0 °F 98% 30.54 in 10.0 mi Calm Calm - N/A   Clear
3:15 AM 14.0 °F - 13.6 °F 98% 30.55 in 10.0 mi Calm Calm - N/A   Clear
3:35 AM 14.5 °F - 13.6 °F 96% 30.55 in 10.0 mi Calm Calm - N/A   Clear
3:55 AM 13.8 °F - 13.3 °F 98% 30.55 in 10.0 mi Calm Calm - N/A   Clear
4:15 AM 14.0 °F - 13.6 °F 98% 30.54 in 10.0 mi Calm Calm - N/A   Clear
4:35 AM 13.5 °F - 13.3 °F 99% 30.54 in 10.0 mi Calm Calm - N/A   Clear
4:55 AM 13.1 °F - 13.1 °F 100% 30.55 in 10.0 mi Calm Calm - N/A   Clear
5:15 AM 13.1 °F - 13.1 °F 100% 30.55 in 10.0 mi Calm Calm - N/A   Clear
5:35 AM 13.5 °F - 13.5 °F 100% 30.55 in 10.0 mi Calm Calm - N/A   Clear
5:55 AM 13.8 °F - 13.6 °F 99% 30.55 in 10.0 mi Calm Calm - N/A   Clear
6:15 AM 13.3 °F - 13.3 °F 100% 30.55 in 10.0 mi Calm Calm - N/A   Clear
6:35 AM 12.6 °F - 12.4 °F 99% 30.56 in 10.0 mi Calm Calm - N/A   Clear
6:55 AM 12.7 °F - 12.7 °F 100% 30.57 in 10.0 mi Calm Calm - N/A   Clear
7:15 AM 12.7 °F - 12.7 °F 100% 30.57 in 10.0 mi Calm Calm - N/A   Clear
7:35 AM 12.7 °F - 12.7 °F 100% 30.57 in 10.0 mi Calm Calm - N/A   Clear
7:55 AM 13.1 °F - 13.1 °F 100% 30.58 in 10.0 mi Calm Calm - N/A   Clear
8:15 AM 14.7 °F - 14.5 °F 99% 30.59 in 10.0 mi Calm Calm - N/A   Clear
8:35 AM 17.2 °F - 15.3 °F 92% 30.59 in 10.0 mi Calm Calm - N/A   Clear
8:55 AM 20.1 °F - 16.2 °F 85% 30.59 in 10.0 mi Calm Calm - N/A   Clear
9:15 AM 21.7 °F - 18.5 °F 87% 30.59 in 10.0 mi Calm Calm - N/A   Clear
9:35 AM 25.3 °F - 18.5 °F 75% 30.60 in 10.0 mi Calm Calm - N/A   Clear
9:55 AM 27.1 °F 23.2 °F 18.7 °F 70% 30.61 in 10.0 mi East 3.5 mph - N/A   Clear
10:15 AM 29.3 °F - 18.3 °F 64% 30.62 in 10.0 mi Calm Calm - N/A   Clear
10:35 AM 31.3 °F - 15.4 °F 52% 30.62 in 10.0 mi Calm Calm - N/A   Clear
10:55 AM 32.2 °F 28.9 °F 14.5 °F 48% 30.61 in 10.0 mi SE 3.5 mph - N/A   Clear
11:15 AM 33.4 °F 30.4 °F 12.4 °F 42% 30.60 in 10.0 mi SSE 3.5 mph - N/A   Clear
11:35 AM 34.2 °F 31.2 °F 12.0 °F 40% 30.60 in 10.0 mi SSE 3.5 mph - N/A   Clear
11:55 AM 35.2 °F - 10.8 °F 36% 30.59 in 10.0 mi Calm Calm - N/A   Clear
12:15 PM 36.5 °F - 11.5 °F 36% 30.58 in 10.0 mi Calm Calm - N/A   Clear
12:35 PM 37.0 °F - 12.0 °F 36% 30.57 in 10.0 mi Calm Calm - N/A   Clear
12:55 PM 38.7 °F - 11.1 °F 32% 30.55 in 10.0 mi Calm Calm - N/A   Clear
1:15 PM 39.0 °F - 12.0 °F 33% 30.54 in 10.0 mi Calm Calm - N/A   Clear
1:35 PM 40.8 °F - 13.3 °F 33% 30.53 in 10.0 mi Calm Calm - N/A   Clear
1:55 PM 41.0 °F - 13.1 °F 32% 30.52 in 10.0 mi Calm Calm - N/A   Clear
2:15 PM 41.9 °F 39.0 °F 13.6 °F 32% 30.52 in 10.0 mi South 4.6 mph - N/A   Clear
2:35 PM 42.8 °F - 13.8 °F 31% 30.51 in 10.0 mi Calm Calm - N/A   Clear
2:55 PM 43.5 °F 41.9 °F 14.0 °F 30% 30.51 in 10.0 mi NE 3.5 mph - N/A   Clear
3:15 PM 44.4 °F - 13.5 °F 29% 30.52 in 10.0 mi Calm Calm - N/A   Clear
3:35 PM 44.2 °F - 12.6 °F 28% 30.52 in 10.0 mi Calm Calm - N/A   Clear
3:55 PM 44.4 °F - 12.7 °F 28% 30.52 in 10.0 mi Calm Calm - N/A   Clear
4:15 PM 44.6 °F 43.1 °F 11.8 °F 27% 30.52 in 10.0 mi ENE 3.5 mph - N/A   Clear
4:35 PM 44.4 °F - 13.3 °F 28% 30.52 in 10.0 mi Calm Calm - N/A   Clear
4:55 PM 43.5 °F - 13.6 °F 30% 30.51 in 10.0 mi Calm Calm - N/A   Clear
5:15 PM 43.0 °F 41.3 °F 13.1 °F 30% 30.51 in 10.0 mi ENE 3.5 mph - N/A   Clear
5:35 PM 39.6 °F - 14.9 °F 37% 30.51 in 10.0 mi Calm Calm - N/A   Clear
5:55 PM 37.4 °F - 15.3 °F 41% 30.52 in 10.0 mi Calm Calm - N/A   Clear
6:15 PM 33.8 °F - 17.6 °F 52% 30.52 in 10.0 mi Calm Calm - N/A   Clear
6:35 PM 32.2 °F - 15.8 °F 51% 30.52 in 10.0 mi Calm Calm - N/A   Clear
6:55 PM 30.2 °F - 19.2 °F 64% 30.53 in 10.0 mi Calm Calm - N/A   Clear
7:15 PM 29.7 °F - 17.8 °F 61% 30.54 in 10.0 mi Calm Calm - N/A   Clear
7:35 PM 28.2 °F - 18.1 °F 66% 30.54 in 10.0 mi Calm Calm - N/A   Clear
7:55 PM 27.5 °F - 17.4 °F 66% 30.55 in 10.0 mi Calm Calm - N/A   Clear
8:15 PM 27.0 °F - 19.0 °F 72% 30.55 in 10.0 mi Calm Calm - N/A   Clear
8:35 PM 26.6 °F - 18.7 °F 72% 30.55 in 10.0 mi Calm Calm - N/A   Clear
8:55 PM 26.2 °F - 19.0 °F 74% 30.55 in 10.0 mi Calm Calm - N/A   Clear
9:15 PM 25.7 °F - 20.5 °F 81% 30.55 in 10.0 mi Calm Calm - N/A   Clear
9:35 PM 25.5 °F - 19.2 °F 77% 30.55 in 10.0 mi Calm Calm - N/A   Clear
9:55 PM 24.8 °F - 19.6 °F 81% 30.55 in 10.0 mi Calm Calm - N/A   Clear
10:15 PM 24.1 °F - 19.8 °F 84% 30.54 in 10.0 mi Calm Calm - N/A   Clear
10:35 PM 24.1 °F - 19.6 °F 83% 30.54 in 10.0 mi Calm Calm - N/A   Clear
10:55 PM 24.3 °F - 19.9 °F 84% 30.54 in 10.0 mi Calm Calm - N/A   Clear
11:15 PM 23.9 °F - 19.9 °F 85% 30.54 in 10.0 mi Calm Calm - N/A   Clear
11:35 PM 24.1 °F - 20.5 °F 86% 30.54 in 10.0 mi Calm Calm - N/A   Clear
11:55 PM 23.7 °F - 20.3 °F 87% 30.53 in 10.0 mi Calm Calm - N/A   Clear